LANDSAT 5 1 14780U 84021A 08325.15972229 .00000043 00000-0 19860-4 0 143 2 14780 98.2716 28.5195 0003593 50.0697 310.0844 14.57077179314941 SPOT 2 1 20436U 90005A 08325.15490808 .00000169 00000-0 10000-3 0 8137 2 20436 98.6901 33.3040 0001247 93.5700 349.8646 14.20041154976027 ERS-2 1 23560U 95021A 08325.17261152 .00000053 00000-0 35823-4 0 5513 2 23560 98.5532 37.0311 0000963 94.5533 265.5781 14.32247861710293 RADARSAT-1 1 23710U 95059A 08325.15322770 .00000074 00000-0 45799-4 0 6868 2 23710 98.5799 328.9355 0000916 85.5043 2.2994 14.29988288680939 TOMS EP 1 23940U 96037A 08324.71263247 .00000086 00000-0 31719-4 0 9249 2 23940 98.0551 199.6212 0028629 284.3825 75.4195 14.52209609659028 MIDORI (ADEOS) 1 24277U 96046A 08325.16543747 -.00000017 00000-0 96442-5 0 9160 2 24277 98.3351 292.6675 0001242 119.0521 241.0787 14.28589661639083 ORBVIEW 2 (SEASTAR) 1 24883U 97037A 08324.35789745 .00000073 00000-0 25214-4 0 5585 2 24883 98.3216 81.2524 0002232 119.0840 241.0595 14.59964178601827 IRS-1D 1 24971U 97057A 08325.15908797 -.00000017 00000-0 86056-5 0 7600 2 24971 98.2671 5.1078 0054207 196.7697 163.1710 14.32942843582893 TRMM 1 25063U 97074A 08324.95375269 .00004374 00000-0 61805-4 0 9202 2 25063 34.9672 282.4410 0001072 274.7948 85.2657 15.55889260627480 SPOT 4 1 25260U 98017A 08325.14159883 .00000169 00000-0 10000-3 0 5768 2 25260 98.6834 35.2776 0001410 102.2155 342.1360 14.20052670552667 FASAT B 1 25395U 98043B 08325.20487059 .00000043 00000-0 36476-4 0 3116 2 25395 98.3645 0.7249 0003676 93.0884 267.0713 14.24320493538696 TECHSAT 1B (GO-32) 1 25397U 98043D 08325.05127324 .00000031 00000-0 31636-4 0 7515 2 25397 98.3473 352.3883 0001920 121.7363 238.4019 14.23151400538384 LANDSAT 7 1 25682U 99020A 08325.12939387 .00000050 00000-0 21276-4 0 1048 2 25682 98.2356 29.8660 0001252 111.7902 248.3447 14.57098590510635 KITSAT 3 1 25756U 99029A 08324.27032904 -.00000052 00000-0 -87704-6 0 7717 2 25756 98.6622 144.2480 0014933 91.2217 269.0669 14.52515780502682 DLR-TUBSAT 1 25757U 99029B 08325.10842120 -.00000064 00000-0 -40406-5 0 2423 2 25757 98.6717 136.0418 0015329 112.4130 247.8684 14.50832869502395 IRS-P4 (OCEANSAT 1) 1 25758U 99029C 08325.23797455 .00000098 00000-0 35839-4 0 109 2 25758 98.2807 57.5823 0001130 118.6447 241.4866 14.50860539502569 QUIKSCAT 1 25789U 99034A 08323.99339969 -.00000053 00000-0 -39832-5 0 2903 2 25789 98.6322 149.8926 0000858 110.2185 249.9087 14.26778424490480 IKONOS 2 1 25919U 99051A 08325.12816946 -.00000046 00000-0 22631-6 0 2157 2 25919 98.1080 37.5632 0001460 70.2139 289.9227 14.64449316489465 CBERS 1 (ZY 1A) 1 25940U 99057A 08325.15880730 -.00000055 00000-0 -51403-5 0 2555 2 25940 98.1618 336.1472 0005166 3.5349 356.5879 14.34435719476846 TERRA 1 25994U 99068A 08325.14920728 .00000051 00000-0 21466-4 0 1500 2 25994 98.2249 37.0914 0000852 66.6994 293.4309 14.57095751474711 ARIRANG 1 (KOMPSAT-1) 1 26032U 99070A 08325.10637356 .00000184 00000-0 42399-4 0 3074 2 26032 97.9466 206.8691 0005186 164.4613 195.6762 14.65561428476862 EO-1 1 26619U 00075A 08325.12927680 .00000290 00000-0 67538-4 0 5168 2 26619 98.1473 29.4916 0008360 236.5491 123.4952 14.61797111425720 SAC C 1 26620U 00075B 08323.91147094 .00000017 00000-0 13318-4 0 5768 2 26620 97.9374 1.0406 0000980 79.1816 280.9470 14.56538684425064 EROS A1 1 26631U 00079A 08325.15605549 .00002182 00000-0 95685-4 0 2710 2 26631 97.3466 27.9439 0006563 351.1955 91.1178 15.23020444442752 QUICKBIRD 2 1 26953U 01047A 08325.14817464 .00001899 00000-0 49819-4 0 4201 2 26953 97.1678 40.3893 0000958 72.8826 312.1654 15.39881977398445 TES 1 26957U 01049A 08325.11558647 .00000654 00000-0 57778-4 0 5256 2 26957 97.5604 42.5133 0018975 187.4624 172.6326 14.99533234387853 JASON 1 1 26997U 01055A 08322.50942664 -.00000038 00000-0 10000-3 0 9485 2 26997 66.0385 150.3222 0007102 263.9095 96.1102 12.80930290324925 METEOR-3M 1 27001U 01056A 08324.66982912 -.00000018 00000-0 28509-4 0 2960 2 27001 99.2861 182.3254 0013131 220.9738 139.0422 13.68704807346853 BADR-B 1 27003U 01056C 08325.17425297 .00000116 00000-0 17993-3 0 1902 2 27003 99.2759 188.7804 0019541 225.9623 133.9909 13.70097324347330 MAROC-TUBSAT 1 27004U 01056D 08324.55867635 .00000023 00000-0 74373-4 0 2050 2 27004 99.2739 187.6049 0019232 227.1357 132.8173 13.70024963347221 ENVISAT 1 27386U 02009A 08324.52306421 -.00000534 00000-0 -18203-3 0 7211 2 27386 98.5460 28.8980 0000898 98.4181 261.7094 14.32247285351489 SPOT 5 1 27421U 02021A 08325.17267984 .00000036 00000-0 37225-4 0 5003 2 27421 98.6700 33.8968 0000822 53.3170 306.8097 14.20053765339502 AQUA 1 27424U 02022A 08324.34620309 .00000090 00000-0 30137-4 0 515 2 27424 98.2480 263.2046 0001110 83.6560 276.4777 14.57094053348201 HAIYANG-1A 1 27430U 02024A 08325.37085069 .00000052 00000-0 37163-4 0 9238 2 27430 98.5108 30.6570 0009046 339.8310 20.2515 14.29675936340235 ALSAT 1 1 27559U 02054A 08325.11712974 .00000048 00000-0 18344-4 0 8006 2 27559 97.9711 200.8858 0011334 20.0306 340.1346 14.62988662319127 MIDORI II (ADEOS-II) 1 27597U 02056A 08324.71422576 .00000064 00000-0 44401-4 0 7135 2 27597 98.5032 29.6593 0001114 131.8938 228.2340 14.26146269308938 ICESAT 1 27642U 03002A 08324.55526613 -.00000022 00000-0 -92679-6 0 431 2 27642 93.9943 186.4025 0003742 19.5582 340.5786 14.90120851318435 ORBVIEW 3 1 27838U 03030A 08325.14228953 .00001856 00000-0 48529-4 0 9516 2 27838 97.0877 24.7893 0002371 94.1502 348.3873 15.39982160303225 IRS-P6 (RESOURCESAT-1) 1 28051U 03046A 08325.28948563 .00000012 00000-0 25562-4 0 451 2 28051 98.7386 37.5554 0002772 44.0182 316.1216 14.21619319264431 CBERS 2 (ZY 1B) 1 28057U 03049A 08325.17833678 .00000005 00000-0 16492-4 0 8405 2 28057 98.3145 19.3796 0002570 109.3837 250.7647 14.35346731266422 TANSUO 1 1 28220U 04012A 08325.20656705 .00000011 00000-0 67213-5 0 436 2 28220 97.5227 7.5127 0011779 162.3104 197.8487 14.88574905249327 FORMOSAT-2 (ROCSAT 2) 1 28254U 04018A 08325.14016333 .00000106 00000-0 10000-3 0 1435 2 28254 98.8982 24.8403 0003220 129.3566 314.4404 14.00867202230259 AURA 1 28376U 04026A 08325.24455184 .00000092 00000-0 30566-4 0 3583 2 28376 98.2477 266.2444 0001096 65.1535 294.9787 14.57108669231384 PARASOL 1 28498U 04049G 08325.24040322 .00000099 00000-0 32226-4 0 2713 2 28498 98.2504 263.8401 0001136 88.9147 271.2196 14.57092091208650 IRS-P5 (CARTOSAT-1) 1 28649U 05017A 08325.13413061 .00000109 00000-0 20093-4 0 303 2 28649 97.8925 35.2577 0001775 60.8605 299.2795 14.82650590191885 TOPSAT 1 28891U 05043B 08325.10525033 .00000034 00000-0 16641-4 0 4553 2 28891 98.0736 214.7243 0016043 283.6417 76.3008 14.59740090163363 SINAH 1 1 28893U 05043D 08325.12563163 .00000026 00000-0 14920-4 0 4091 2 28893 98.0758 215.4751 0014600 284.0824 75.8753 14.60057117163404 ALOS (DAICHI) 1 28931U 06002A 08325.12072175 .00000058 00000-0 22008-4 0 1906 2 28931 98.2135 36.6695 0001194 98.1711 261.9633 14.59541501150405 EROS B 1 29079U 06014A 08325.12398344 .00001506 00000-0 69774-4 0 9214 2 29079 97.4249 82.6841 0008467 53.6566 71.2212 15.21593447142721 RSS-1 (YAOGAN 1) 1 29092U 06015A 08325.08647375 .00000035 00000-0 11274-4 0 8921 2 29092 97.8270 318.2538 0001839 87.4230 272.7193 14.80287382138839 RESURS-DK 1 1 29228U 06021A 08325.12832179 .00001157 00000-0 26161-4 0 7535 2 29228 69.9328 210.3360 0157486 144.2906 216.8937 15.35095674136285 ARIRANG 2 (KOMPSAT-2) 1 29268U 06031A 08325.11583053 .00000106 00000-0 30469-4 0 5945 2 29268 98.0605 217.1727 0019158 82.5673 277.7709 14.61672780123545 LAPAN-TUBSAT 1 29709U 07001A 08325.12156063 .00000018 00000-0 92226-5 0 645 2 29709 97.8460 19.9026 0012168 242.7799 117.2198 14.80232662100552 CARTOSAT-2 (IRS-P7) 1 29710U 07001B 08325.08408743 .00000086 00000-0 18743-4 0 700 2 29710 97.9143 23.5403 0001543 36.4126 323.7194 14.78651011100482 HAIYANG-1B 1 31113U 07010A 08325.13325156 .00000212 00000-0 10000-3 0 8012 2 31113 98.5705 36.4950 0013258 323.4374 36.5892 14.29403039 84074 COSMO-SKYMED 1 1 31598U 07023A 08325.11760442 .00000016 00000-0 85368-5 0 6383 2 31598 97.8626 151.4596 0001177 77.0707 283.0630 14.82170318 78654 TERRASAR-X 1 31698U 07026A 08325.13082502 .00000259 00000-0 15512-4 0 6026 2 31698 97.4441 329.5384 0001522 81.8654 344.4278 15.19155981 79535 WORLDVIEW-1 (WV-1) 1 32060U 07041A 08325.14542118 .00000620 00000-0 28249-4 0 3189 2 32060 97.4532 38.0808 0001650 112.0397 279.6752 15.24379036 65240 CBERS 2B 1 32062U 07042A 08325.09956517 .00000029 00000-0 25367-4 0 3123 2 32062 98.5080 38.2151 0001498 92.5785 267.5576 14.35442273 61407 COSMO-SKYMED 2 1 32376U 07059A 08325.08386809 .00000011 00000-0 78936-5 0 588 2 32376 97.8628 151.4262 0001170 81.4342 278.6993 14.82165476 51391 RADARSAT-2 1 32382U 07061A 08325.19055274 .00000047 00000-0 35333-4 0 402 2 32382 98.5815 329.8109 0000936 82.6197 5.1288 14.29983533 48822 CARTOSAT-2A 1 32783U 08021A 08325.11461271 .00000033 00000-0 11697-4 0 6367 2 32783 97.9802 23.7627 0016156 13.3033 346.8609 14.78658197 30431 IMS-1 1 32786U 08021D 08324.86114345 -.00000053 00000-0 -17799-7 0 2191 2 32786 97.9774 23.8578 0012703 352.6238 7.4782 14.80042951 30427 JASON 2 (OSTM) 1 33105U 08032A 08325.24272291 -.00000061 00000-0 00000+0 0 1508 2 33105 66.0397 144.8712 0007221 265.7283 94.2908 12.80930799 19580 RAPIDEYE 2 1 33312U 08040A 08325.20759603 -.00163798 00000-0 -21198-1 0 2715 2 33312 97.9907 45.7456 0021320 80.1138 280.2012 14.81708359 12290 RAPIDEYE 5 1 33313U 08040B 08325.08550352 .00001998 00000-0 27125-3 0 2755 2 33313 97.9920 44.9743 0017278 301.7079 58.2402 14.79892881 12229 RAPIDEYE 1 1 33314U 08040C 08325.16696985 -.00129833 00000-0 -16582-1 0 2909 2 33314 97.9912 45.7938 0031359 89.4624 271.0389 14.81852515 12275 RAPIDEYE 3 1 33315U 08040D 08325.10829094 .00000047 00000-0 13292-4 0 2577 2 33315 97.9909 45.2439 0012635 17.3316 342.8324 14.79679222 12238 RAPIDEYE 4 1 33316U 08040E 08325.09938537 .00002201 00000-0 29824-3 0 2615 2 33316 97.9904 45.0988 0011434 323.4175 36.6241 14.79915103 12227 HJ-1A 1 33320U 08041A 08325.13815048 .00000124 00000-0 25997-4 0 2291 2 33320 98.0064 37.3193 0025631 35.3783 324.9131 14.75094817 11070 HJ-1B 1 33321U 08041B 08325.10425360 .00000034 00000-0 12683-4 0 2392 2 33321 98.0075 37.2193 0044122 46.3386 314.1469 14.75094319 11059 GEOEYE 1 1 33331U 08042A 08325.09335012 .00000031 00000-0 14828-4 0 2217 2 33331 98.1194 37.0557 0011545 19.6583 340.5061 14.64604154 10872 THEOS 1 33396U 08049A 08325.38927284 -.00000044 00000-0 51000-9 0 1217 2 33396 98.7756 28.7833 0001011 87.2255 43.4334 14.20008837 7147 COSMO-SKYMED 3 1 33412U 08054A 08325.07117502 -.00000076 00000-0 -30716-5 0 809 2 33412 97.8644 151.4115 0001156 82.8154 277.3182 14.82162151 3859